Starlink 35462

operational
NORAD ID: 65877 Int'l Des: 2025-223 Owner: SPXS Country: US Constellation: starlink
LEOCIRCULAR

About Starlink 35462

Description loading...

Live Position

Loading 3D Globe...

Upcoming Passes

Altitude History

Altitude vs Time

uPlot chart will show altitude changes over time

Two-Line Element Set

1 65877U 25223Z 26061.14166420 .00037826 00000-0 12831-2 0 9999
2 65877 53.1613 328.9730 0001311 81.3730 278.7419 15.30191907 23058
Epoch: Mar 2, 2026 • Age: 34 hours

Current Status

Altitude 479.0 km
Velocity 7.63 km/s
Sub-Earth Point -13.94°S, 158.11°W
Launch Date Oct 3, 2025
Age 0.4 years
Type internet

Technical Details

Classification Payload
Mass 575.00 kg
Dry Mass 530.00 kg
Total Mass 575.00 kg
Length 0.30 m
Diameter 4.10 m
Span 29.00 m
Shape Box + pan
Manufacturer SPXS
Bus Type Starlink V2MO
Phase Status In Orbit
Owner/State SPXS/US

Large Constellations

Loading constellations...